GORIZONT 12 [-]

Last updated on Jan. 25, 2020, 4:43 a.m. UTC

1 16769U 86044A   20024.35464719 -.00000270  00000-0  00000-0 0  9998
2 16769  13.5878 339.7965 0004673 323.3816  41.9887  1.00210910123840
UTC
Height (km)
Latitude
Longitude
Inclination
Orbital Period
UTC large
Height (km)
Speed (km/s)
/
Latitude / Longitude
Inclination (degrees)
Orbital Period (minutes)
Azimuth
Elevation
Range (km)
Doppler Factor
iOS Compass Heading
iOS Angle

Next 30 passes for location: Hong Kong

Rise time Rise Azimuth (degrees) Set time Set Azimuth (degrees) Duration Max altitude (degrees)

No matching passes for this satellites